Weather History for KMTJ - November, 2010

Change the Weather History Date:

Monday, November 15, 2010

  Actual Average Record
Temperature  
Mean Temperature 30 °F 38 °F  
Max Temperature 35 °F 50 °F 64 °F (1998)
Min Temperature 26 °F 25 °F 15 °F (1997)
Degree Days  
Heating Degree Days 34 27  
Month to date heating degree days 365  
Since 1 July heating degree days 956  
Cooling Degree Days 0 0  
Month to date cooling degree days 0  
Year to date cooling degree days 643  
Moisture  
Dew Point 30 °F    
Average Humidity 94    
Maximum Humidity 100    
Minimum Humidity 75    
Precipitation  
Precipitation 0.13 in 0.03 in 0.24 in (1996)
Month to date precipitation 0.44  
Year to date precipitation 10.28  
Sea Level Pressure  
Sea Level Pressure 29.94 in    
Wind  
Wind Speed 3 mph (East)    
Max Wind Speed 10 mph    
Max Gust Speed -    
Visibility 4 miles    
Events Fog , Snow    
T = Trace of Precipitation, MM = Missing Value Source: NWS Daily Summary

Daily Weather History Graph

Daily Weather History Graph

Search for Another Location

Airport or City:

Trip Planner

Search our weather history database for the weather conditions in past years. The results will help you decide how hot, cold, wet, or windy it might be!

Date:

Astronomy

Nov. 15, 2010 Rise Set
Actual Time 6:53 AM MST 4:58 PM MST
Civil Twilight 6:25 AM MST 5:26 PM MST
Nautical Twilight 5:53 AM MST 5:58 PM MST
Astronomical Twilight 5:21 AM MST 6:30 PM MST
Moon 1:39 PM MST (11/15) 1:05 AM MST (11/15)
Length of Visible Light 11h 01m
Length of Day
10h 05m
Waxing Gibbous, 69% of the Moon is Illuminated
Nov 15
Waxing Gibbous
Nov 21
Full
Nov 28
Last Quarter
Dec 5
New
Dec 13
First Quarter

Hourly Weather History & Observations

Time (MST) Temp. Windchill Dew Point Humidity Pressure Visibility Wind Dir Wind Speed Gust Speed Precip Events Conditions
12:53 AM 30.9 °F 24.3 °F 24.1 °F 76% 29.84 in 10.0 mi SE 6.9 mph - N/A   Overcast
1:53 AM 33.1 °F - 26.1 °F 75% 29.81 in 10.0 mi Calm Calm - N/A   Overcast
2:28 AM 32.0 °F 26.4 °F 26.6 °F 80% 29.88 in 2.5 mi West 5.8 mph - 0.00 in Snow Light Snow
2:32 AM 32.0 °F 27.5 °F 28.4 °F 87% 29.88 in 1.8 mi WNW 4.6 mph - 0.00 in Snow Light Snow
2:35 AM 32.0 °F - 28.4 °F 87% 29.88 in 1.0 mi Calm Calm - 0.00 in Snow Light Snow
2:43 AM 30.2 °F - 28.4 °F 93% 29.88 in 0.5 mi Calm Calm - 0.02 in Fog , Snow Snow
2:51 AM 30.2 °F - 30.2 °F 100% 29.88 in 1.2 mi Calm Calm - 0.02 in Snow Light Snow
2:53 AM 30.9 °F - 30.0 °F 96% 29.84 in 2.0 mi Calm Calm - 0.02 in Snow Light Snow
3:07 AM 30.2 °F - 30.2 °F 100% 29.88 in 1.5 mi Calm Calm - 0.00 in Snow Light Snow
3:12 AM 30.2 °F - 30.2 °F 100% 29.88 in 2.0 mi Calm Calm - 0.00 in Snow Light Snow
3:34 AM 30.2 °F - 28.4 °F 93% 29.88 in 3.0 mi Calm Calm - 0.00 in Snow Light Snow
3:53 AM 30.0 °F 25.2 °F 28.9 °F 96% 29.83 in 5.0 mi SE 4.6 mph - 0.00 in   Overcast
4:53 AM 28.9 °F - 28.0 °F 96% 29.84 in 7.0 mi Calm Calm - N/A   Clear
4:57 AM 28.4 °F - 28.4 °F 100% 29.86 in 1.5 mi Calm Calm - N/A   Clear
5:00 AM 28.4 °F - 26.6 °F 93% 29.86 in 0.8 mi Calm Calm - N/A   Clear
5:15 AM 28.4 °F - 28.4 °F 100% 29.85 in 1.2 mi Calm Calm - N/A   Clear
5:22 AM 26.6 °F - 26.6 °F 100% 29.85 in 2.0 mi Calm Calm - N/A   Clear
5:27 AM 28.4 °F - 28.4 °F 100% 29.86 in 1.5 mi Calm Calm - N/A   Clear
5:30 AM 26.6 °F - 26.6 °F 100% 29.86 in 0.8 mi Calm Calm - N/A   Clear
5:41 AM 26.6 °F - 26.6 °F 100% 29.86 in 1.2 mi Calm Calm - N/A   Partly Cloudy
5:43 AM 26.6 °F - 26.6 °F 100% 29.85 in 4.0 mi Calm Calm - N/A   Partly Cloudy
5:53 AM 28.0 °F - 26.1 °F 92% 29.84 in 7.0 mi Calm Calm - N/A   Partly Cloudy
6:07 AM 28.4 °F 23.3 °F 26.6 °F 93% 29.86 in 3.0 mi North 4.6 mph - N/A   Mostly Cloudy
6:09 AM 28.4 °F 23.3 °F 26.6 °F 93% 29.86 in 1.8 mi North 4.6 mph - N/A   Mostly Cloudy
6:11 AM 28.4 °F 24.6 °F 26.6 °F 93% 29.86 in 1.0 mi North 3.5 mph - N/A   Mostly Cloudy
6:18 AM 26.6 °F 22.6 °F 26.6 °F 100% 29.86 in 0.5 mi North 3.5 mph - N/A Fog Light Freezing Fog
6:28 AM 28.4 °F 24.6 °F 26.6 °F 93% 29.87 in 0.2 mi North 3.5 mph - 0.00 in Fog , Snow Light Snow
6:36 AM 28.4 °F 24.6 °F 26.6 °F 93% 29.87 in 0.2 mi North 3.5 mph - 0.00 in Fog , Snow Light Snow
6:53 AM 28.0 °F - 28.0 °F 100% 29.87 in 0.5 mi Calm Calm - 0.00 in Fog , Snow Light Snow
7:12 AM 28.4 °F - 28.4 °F 100% 29.89 in 1.0 mi Calm Calm - 0.01 in Snow Light Snow
7:21 AM 28.4 °F - 28.4 °F 100% 29.89 in 0.8 mi Calm Calm - 0.02 in Snow Light Snow
7:40 AM 28.4 °F - 28.4 °F 100% 29.89 in 0.5 mi Calm Calm - 0.03 in Fog , Snow Snow
7:53 AM 28.9 °F - 28.9 °F 100% 29.88 in 0.5 mi Calm Calm - 0.04 in Fog , Snow Snow
8:16 AM 30.2 °F 25.4 °F 28.4 °F 93% 29.90 in 1.2 mi WSW 4.6 mph - 0.02 in Snow Light Snow
8:21 AM 30.2 °F 24.3 °F 28.4 °F 93% 29.90 in 2.0 mi WSW 5.8 mph - 0.02 in Snow Light Snow
8:28 AM 30.2 °F 25.4 °F 30.2 °F 100% 29.91 in 3.0 mi WSW 4.6 mph - 0.02 in Snow Light Snow
8:42 AM 30.2 °F - 30.2 °F 100% 29.92 in 7.0 mi Calm Calm - 0.02 in   Overcast
8:53 AM 30.0 °F - 28.9 °F 96% 29.92 in 9.0 mi Calm Calm - 0.02 in   Overcast
9:53 AM 32.0 °F 27.5 °F 30.0 °F 92% 29.94 in 10.0 mi ESE 4.6 mph - N/A   Overcast
10:43 AM 33.8 °F 28.6 °F 30.2 °F 87% 29.96 in 1.8 mi Variable 5.8 mph - 0.00 in Snow Light Snow
10:49 AM 33.8 °F 28.6 °F 30.2 °F 87% 29.97 in 1.2 mi East 5.8 mph - 0.00 in Snow Light Snow
10:50 AM 33.1 °F 27.7 °F 30.9 °F 92% 29.96 in 1.2 mi East 5.8 mph - 0.00 in Snow Light Snow
10:58 AM 33.8 °F - 32.0 °F 93% 29.97 in 0.8 mi Calm Calm - 0.00 in Snow Light Snow
11:10 AM 33.8 °F - 32.0 °F 93% 29.97 in 1.0 mi Calm Calm - 0.01 in Snow Light Snow
11:19 AM 33.8 °F 30.8 °F 32.0 °F 93% 29.97 in 1.2 mi East 3.5 mph - 0.01 in Snow Light Snow
11:28 AM 33.8 °F 30.8 °F 32.0 °F 93% 29.97 in 1.0 mi East 3.5 mph - 0.02 in Snow Light Snow
11:35 AM 33.8 °F - 32.0 °F 93% 29.97 in 0.5 mi Calm Calm - 0.02 in Fog , Snow Snow
11:53 AM 33.1 °F - 33.1 °F 100% 29.97 in 0.5 mi Calm Calm - 0.05 in Fog , Snow Snow
12:03 PM 33.8 °F - 32.0 °F 93% 29.97 in 0.5 mi Calm Calm - 0.01 in Fog , Snow Snow
12:16 PM 33.8 °F - 32.0 °F 93% 29.97 in 1.0 mi Calm Calm - 0.01 in Snow Light Snow
12:24 PM 33.8 °F - 32.0 °F 93% 29.97 in 1.5 mi Calm Calm - 0.01 in Snow Light Snow
12:27 PM 33.8 °F - 32.0 °F 93% 29.97 in 1.0 mi Calm Calm - 0.02 in Snow Light Snow
12:34 PM 33.8 °F - 32.0 °F 93% 29.97 in 0.8 mi Calm Calm - 0.02 in Snow Light Snow
12:39 PM 33.8 °F - 32.0 °F 93% 29.97 in 1.0 mi Calm Calm - 0.02 in Snow Light Snow
12:46 PM 33.8 °F - 33.8 °F 100% 29.97 in 1.8 mi Calm Calm - 0.03 in Snow Light Snow
1:12 PM 33.8 °F - 33.8 °F 100% 29.97 in 4.0 mi Calm Calm - 0.00 in Snow Light Snow
1:34 PM 33.8 °F - 33.8 °F 100% 29.98 in 8.0 mi Calm Calm - 0.00 in   Overcast
1:53 PM 35.1 °F 27.4 °F 33.1 °F 92% 29.97 in 10.0 mi NW 10.4 mph - 0.00 in   Overcast
2:39 PM 33.8 °F 28.6 °F 33.8 °F 100% 30.00 in 10.0 mi North 5.8 mph - 0.00 in   Overcast
2:53 PM 35.1 °F 32.2 °F 33.1 °F 92% 29.99 in 10.0 mi North 3.5 mph - 0.00 in   Overcast
3:13 PM 35.6 °F 32.8 °F 33.8 °F 93% 30.00 in 10.0 mi NNE 3.5 mph - N/A   Overcast
3:36 PM 35.6 °F 30.7 °F 33.8 °F 93% 30.01 in 10.0 mi ENE 5.8 mph - N/A   Overcast
3:46 PM 35.6 °F 31.7 °F 33.8 °F 93% 30.01 in 10.0 mi ENE 4.6 mph - N/A   Overcast
3:53 PM 35.1 °F 31.0 °F 33.1 °F 92% 30.01 in 10.0 mi ENE 4.6 mph - N/A   Overcast
4:16 PM 35.6 °F 31.7 °F 33.8 °F 93% 30.02 in 10.0 mi East 4.6 mph - N/A   Mostly Cloudy
4:53 PM 35.1 °F 29.3 °F 32.0 °F 89% 30.04 in 10.0 mi SE 6.9 mph - N/A   Scattered Clouds
5:12 PM 35.6 °F 29.9 °F 32.0 °F 87% 30.05 in 10.0 mi SSE 6.9 mph - N/A   Mostly Cloudy
5:39 PM 35.6 °F 30.7 °F 32.0 °F 87% 30.05 in 10.0 mi South 5.8 mph - N/A   Overcast
5:53 PM 35.1 °F 31.0 °F 32.0 °F 89% 30.06 in 10.0 mi South 4.6 mph - N/A   Overcast
6:53 PM 32.0 °F 24.8 °F 30.9 °F 96% 30.08 in 10.0 mi SE 8.1 mph - N/A   Scattered Clouds
7:53 PM 32.0 °F 24.8 °F 30.0 °F 92% 30.09 in 10.0 mi ESE 8.1 mph - N/A   Partly Cloudy
8:53 PM 30.9 °F 24.3 °F 28.9 °F 92% 30.10 in 10.0 mi SE 6.9 mph - N/A   Mostly Cloudy
9:53 PM 30.9 °F 26.2 °F 28.0 °F 89% 30.11 in 10.0 mi SSE 4.6 mph - N/A   Overcast
10:53 PM 30.9 °F 26.2 °F 28.0 °F 89% 30.11 in 10.0 mi ESE 4.6 mph - N/A   Overcast
11:53 PM 30.9 °F 24.3 °F 27.0 °F 85% 30.09 in 10.0 mi SSE 6.9 mph - N/A   Mostly Cloudy